Home > Weather > Port of Spain > Past weeks

Flag for Trinidad and Tobago Past Weather in Port of Spain, Trinidad and Tobago — Yesterday and Last 2 Weeks

Now
91 °F

Scattered clouds.


Feels Like: 100 °F
Forecast: 80 / 87 °F
Wind: 12 mph from East

Location: Piarco International Airport - Trinidad

Current Time: Jul 25, 2016 at 12:01:25 PM

Latest Report: Jul 25, 2016 at 11:00 AM


Visibility: N/A

Pressure: 29.95 "Hg

Humidity: 56%

Dew Point: 73 °F

Location of Port of SpainLocation

Past Weather in Port of Spain — Graph

°F

Port of Spain Temperature Yesterday

Maximum temperature yesterday: 91 °F (at 12:00 PM)
Minimum temperature yesterday: 75 °F (at 3:00 AM)
Average temperature yesterday: 83 °F

High & Low Weather Summary for the Past Weeks

 TemperatureHumidityPressure
High93 °F (Jul 17, 2:00 PM)100% (Jul 11, 2:00 AM)30.01 "Hg (Jul 11, 2:00 AM)
Low73 °F (Jul 15, 5:00 PM)44% (Jul 17, 2:00 PM)29.83 "Hg (Jul 15, 5:00 PM)
Average82 °F82%29.93 "Hg
* Reported Jul 10 11:00 AM — Jul 25 11:00 AM, Port of Spain, Weather by CustomWeather, © 2016

Note: Actual official high and low records may vary slightly from our data, if they occured in-between our weather recording intervals... More about our weather records

Advertising

Port of Spain Weather History for the Previous 24 Hours

Scroll right to see more
 ConditionsComfort  
Time TempWeatherWind HumidityBarometerVisibility
11:00 AM
Mon, Jul 25
91 °FScattered clouds.12 mph56%29.95 "HgN/A
10:00 AM90 °FScattered clouds.3 mph63%29.95 "HgN/A
9:00 AM88 °FPassing clouds.3 mph70%29.95 "HgN/A
8:00 AM84 °FPassing clouds.No wind74%29.92 "HgN/A
7:00 AM77 °FPassing clouds.No wind94%29.92 "HgN/A
5:00 AM75 °FPassing clouds.No wind94%29.89 "HgN/A
3:00 AM75 °FPassing clouds.No wind100%29.89 "HgN/A
2:00 AM75 °FPassing clouds.No wind94%29.89 "HgN/A
1:00 AM79 °FPassing clouds.No wind89%29.92 "HgN/A
12:00 AM77 °FPassing clouds.No wind94%29.95 "HgN/A
11:00 PM
Sun, Jul 24
77 °FPassing clouds.No wind94%29.95 "HgN/A
10:00 PM79 °FPassing clouds.No wind89%29.95 "HgN/A
9:00 PM79 °FPassing clouds.5 mph89%29.92 "HgN/A
8:00 PM81 °FPassing clouds.6 mph84%29.89 "HgN/A
7:00 PM82 °FPassing clouds.8 mph79%29.89 "HgN/A
6:00 PM84 °FPassing clouds.14 mph74%29.89 "HgN/A
5:00 PM86 °FPassing clouds.15 mph62%29.86 "HgN/A
4:00 PM90 °FPassing clouds.16 mph55%29.89 "HgN/A
3:00 PM91 °FScattered clouds.15 mph56%29.89 "HgN/A
2:00 PM91 °FScattered clouds.16 mph56%29.89 "HgN/A
1:00 PM91 °FPassing clouds.15 mph52%29.92 "HgN/A
12:00 PM91 °FPassing clouds.16 mph56%29.95 "HgN/A
Weather by CustomWeather, © 2016

See weather overviewHow to use our weather pages